Location: Newark
(42.9858°N, 0.6717°E)
Time: 05:48:39
(UTC+00:00)

S-56A Canister/Altair - Pass Details

Date: 29 November 2019
Orbit: 633 x 2499 km, 38.9° (Epoch: 06 December)

Event Time Altitude Azimuth Distance (km) Brightness Sun altitude
Rises 09:48:21 0° 171° (S) 6,113 13.4 20.1°
Reaches altitude 10° 09:57:57 10° 139° (SE) 5,135 13.5 21.0°
Maximum altitude 10:00:30 11° 129° (SE) 5,044 13.1 21.2°
Drops below altitude 10° 10:02:59 10° 119° (ESE) 5,042 12.7 21.4°
Sets 10:11:47 0° 87° (E) 5,708 12.2 22.0°
